| time (UTC) | temp C | wind direction | speed KPH | gust KPH | rain 1hr cm | rain 24hr cm | rain mn cm | humidity % | barometer mb |
| 20260504012532 | 13 | 317 | 8.0 | 9.7 | 0.00 | 0.03 | 0.00 | 49 | 1002.0 |
| 20260504011529 | 13 | 321 | 8.0 | 12.9 | 0.00 | 0.03 | 0.00 | 46 | 1002.2 |
| 20260504010527 | 16 | 323 | 8.0 | 11.3 | 0.00 | 0.03 | 0.00 | 39 | 1002.3 |
| 20260504005524 | 17 | 322 | 9.7 | 12.9 | 0.00 | 0.03 | 0.00 | 33 | 1002.4 |
| 20260504004521 | 17 | 322 | 9.7 | 12.9 | 0.00 | 0.03 | 0.00 | 33 | 1002.4 |
| 20260504003518 | 16 | 322 | 9.7 | 12.9 | 0.00 | 0.03 | 0.00 | 36 | 1002.5 |
| 20260504002515 | 17 | 316 | 9.7 | 12.9 | 0.00 | 0.03 | 0.00 | 34 | 1002.5 |
| 20260504001533 | 17 | 325 | 9.7 | 14.5 | 0.00 | 0.03 | 0.00 | 31 | 1002.5 |
| 20260504000530 | 18 | 320 | 11.3 | 14.5 | 0.00 | 0.03 | 0.00 | 28 | 1002.6 |
| 20260503235528 | 18 | 324 | 9.7 | 16.1 | 0.00 | 0.03 | 0.00 | 27 | 1002.4 |
| 20260503234524 | 18 | 326 | 9.7 | 19.3 | 0.00 | 0.03 | 0.00 | 26 | 1002.5 |
| 20260503233522 | 19 | 316 | 11.3 | 24.1 | 0.00 | 0.03 | 0.00 | 25 | 1002.5 |
| 20260503232519 | 19 | 324 | 12.9 | 19.3 | 0.00 | 0.03 | 0.00 | 26 | 1002.4 |
| 20260503231516 | 19 | 326 | 16.1 | 25.7 | 0.00 | 0.03 | 0.00 | 25 | 1002.6 |
| 20260503230534 | 19 | 318 | 11.3 | 24.1 | 0.00 | 0.03 | 0.00 | 26 | 1002.6 |
| 20260503225531 | 19 | 327 | 11.3 | 19.3 | 0.00 | 0.03 | 0.00 | 26 | 1002.6 |
| 20260503224549 | 19 | 329 | 17.7 | 25.7 | 0.00 | 0.03 | 0.00 | 26 | 1002.6 |
| 20260503223525 | 19 | 327 | 14.5 | 24.1 | 0.00 | 0.03 | 0.00 | 25 | 1002.5 |
| 20260503222523 | 19 | 323 | 12.9 | 22.5 | 0.00 | 0.03 | 0.00 | 25 | 1002.4 |
| 20260503221520 | 19 | 326 | 14.5 | 24.1 | 0.00 | 0.03 | 0.00 | 26 | 1002.4 |
| 20260503220518 | 20 | 325 | 11.3 | 24.1 | 0.00 | 0.03 | 0.00 | 26 | 1002.4 |
| 20260503215534 | 19 | 328 | 11.3 | 22.5 | 0.00 | 0.03 | 0.00 | 27 | 1002.4 |
| 20260503214531 | 19 | 327 | 8.0 | 17.7 | 0.00 | 0.03 | 0.00 | 28 | 1002.4 |
| 20260503213528 | 20 | 325 | 19.3 | 29.0 | 0.00 | 0.03 | 0.00 | 28 | 1002.5 |
| 20260503212546 | 20 | 323 | 12.9 | 22.5 | 0.00 | 0.03 | 0.00 | 30 | 1002.7 |
| 20260503211543 | 20 | 333 | 17.7 | 30.6 | 0.00 | 0.03 | 0.00 | 32 | 1002.6 |
| 20260503210521 | 19 | 314 | 12.9 | 27.4 | 0.00 | 0.03 | 0.00 | 33 | 1002.8 |
| 20260503205517 | 20 | 324 | 11.3 | 27.4 | 0.00 | 0.03 | 0.00 | 32 | 1002.6 |
| 20260503204535 | 20 | 332 | 17.7 | 27.4 | 0.00 | 0.03 | 0.00 | 32 | 1002.5 |
| 20260503203532 | 19 | 315 | 11.3 | 24.1 | 0.00 | 0.03 | 0.00 | 30 | 1002.6 |
| 20260503202530 | 20 | 335 | 14.5 | 24.1 | 0.00 | 0.03 | 0.00 | 32 | 1002.7 |
| 20260503201607 | 20 | 330 | 16.1 | 24.1 | 0.00 | 0.03 | 0.00 | 32 | 1002.8 |
| 20260503200524 | 19 | 327 | 14.5 | 20.9 | 0.00 | 0.03 | 0.00 | 31 | 1002.8 |
| 20260503195521 | 19 | 324 | 9.7 | 22.5 | 0.00 | 0.03 | 0.00 | 30 | 1002.8 |
| 20260503194518 | 19 | 326 | 17.7 | 29.0 | 0.00 | 0.03 | 0.00 | 31 | 1003.1 |
| 20260503193515 | 19 | 330 | 16.1 | 25.7 | 0.00 | 0.03 | 0.00 | 34 | 1003.2 |
| 20260503192533 | 19 | 320 | 12.9 | 32.2 | 0.00 | 0.03 | 0.00 | 35 | 1003.2 |
| 20260503191610 | 19 | 330 | 17.7 | 25.7 | 0.00 | 0.03 | 0.00 | 36 | 1003.2 |
| 20260503190527 | 19 | 311 | 11.3 | 22.5 | 0.00 | 0.03 | 0.00 | 39 | 1003.1 |
| 20260503185545 | 18 | 321 | 12.9 | 19.3 | 0.00 | 0.03 | 0.00 | 41 | 1003.2 |
| 20260503184522 | 19 | 326 | 14.5 | 27.4 | 0.00 | 0.03 | 0.00 | 41 | 1003.2 |
| 20260503183519 | 18 | 318 | 9.7 | 20.9 | 0.00 | 0.03 | 0.00 | 40 | 1003.3 |
| 20260503182517 | 18 | 318 | 16.1 | 27.4 | 0.00 | 0.03 | 0.00 | 41 | 1003.3 |
| 20260503181534 | 18 | 328 | 16.1 | 25.7 | 0.00 | 0.03 | 0.00 | 41 | 1003.6 |
| 20260503180531 | 18 | 320 | 11.3 | 19.3 | 0.00 | 0.03 | 0.00 | 41 | 1003.5 |
| 20260503175529 | 18 | 339 | 12.9 | 22.5 | 0.00 | 0.03 | 0.00 | 39 | 1003.7 |
| 20260503174525 | 18 | 323 | 14.5 | 22.5 | 0.00 | 0.03 | 0.00 | 40 | 1003.7 |
| 20260503173522 | 18 | 324 | 11.3 | 19.3 | 0.00 | 0.03 | 0.00 | 41 | 1003.6 |
| 20260503172540 | 18 | 327 | 11.3 | 17.7 | 0.00 | 0.03 | 0.00 | 41 | 1003.5 |
| 20260503171517 | 18 | 322 | 17.7 | 27.4 | 0.00 | 0.03 | 0.00 | 41 | 1003.7 |
| 20260503170534 | 18 | 332 | 14.5 | 20.9 | 0.00 | 0.03 | 0.00 | 43 | 1003.6 |
| 20260503150521 | 15 | 316 | 11.3 | 17.7 | 0.00 | 0.03 | 0.00 | 51 | 1003.8 |
| 20260503130527 | 10 | 309 | 4.8 | 6.4 | 0.00 | 0.03 | 0.00 | 70 | 1003.9 |
| 20260503110535 | 5 | 350 | 6.4 | 9.7 | 0.00 | 0.03 | 0.00 | 95 | 1003.8 |
| 20260503081528 | 7 | 346 | 6.4 | 9.7 | 0.00 | 0.03 | 0.00 | 82 | 1004.9 |
| 20260503080525 | 7 | 343 | 8.0 | 11.3 | 0.00 | 0.03 | 0.00 | 81 | 1005.1 |
| 20260503072534 | 8 | 340 | 6.4 | 8.0 | 0.00 | 0.03 | 0.00 | 83 | 1005.5 |
| 20260503071531 | 8 | 339 | 6.4 | 8.0 | 0.00 | 0.03 | 0.00 | 80 | 1005.5 |
| 20260503070529 | 8 | 343 | 6.4 | 9.7 | 0.00 | 0.03 | 0.00 | 77 | 1005.5 |
| 20260503054527 | 10 | 322 | 9.7 | 11.3 | 0.00 | 0.03 | 0.00 | 79 | 1006.7 |
| 20260503053524 | 11 | 322 | 8.0 | 11.3 | 0.00 | 0.03 | 0.00 | 76 | 1006.8 |
| 20260503052522 | 11 | 310 | 6.4 | 9.7 | 0.03 | 0.03 | 0.00 | 77 | 1006.8 |
| 20260503050516 | 11 | 323 | 6.4 | 8.0 | 0.03 | 0.03 | 0.00 | 72 | 1007.1 |
| 20260503045533 | 12 | 322 | 6.4 | 9.7 | 0.03 | 0.03 | 0.03 | 64 | 1007.4 |
| 20260503044530 | 12 | 280 | 6.4 | 11.3 | 0.03 | 0.03 | 0.03 | 59 | 1007.6 |
| 20260503043528 | 12 | 320 | 8.0 | 12.9 | 0.00 | 0.00 | 0.00 | 62 | 1007.8 |
| 20260503042525 | 13 | 330 | 8.0 | 12.9 | 0.00 | 0.00 | 0.00 | 59 | 1007.8 |
| 20260503041522 | 13 | 315 | 6.4 | 9.7 | 0.00 | 0.00 | 0.00 | 55 | 1007.8 |
| 20260503040519 | 13 | 319 | 6.4 | 9.7 | 0.00 | 0.00 | 0.00 | 54 | 1007.8 |
| 20260503035516 | 13 | 319 | 8.0 | 9.7 | 0.00 | 0.00 | 0.00 | 54 | 1007.8 |
| 20260503034533 | 13 | 312 | 6.4 | 9.7 | 0.00 | 0.00 | 0.00 | 56 | 1008.0 |
| 20260503033531 | 12 | 313 | 6.4 | 9.7 | 0.00 | 0.00 | 0.00 | 56 | 1008.1 |
| 20260503032528 | 12 | 315 | 8.0 | 11.3 | 0.00 | 0.00 | 0.00 | 58 | 1008.1 |
| 20260503031525 | 13 | 314 | 6.4 | 9.7 | 0.00 | 0.00 | 0.00 | 55 | 1008.2 |
| 20260503030523 | 13 | 321 | 6.4 | 9.7 | 0.00 | 0.00 | 0.00 | 53 | 1008.3 |
| 20260503025520 | 13 | 318 | 4.8 | 8.0 | 0.00 | 0.00 | 0.00 | 53 | 1008.4 |
| 20260503024517 | 12 | 321 | 8.0 | 12.9 | 0.00 | 0.00 | 0.00 | 61 | 1008.5 |
| 20260503023534 | 13 | 320 | 6.4 | 9.7 | 0.00 | 0.00 | 0.00 | 53 | 1008.5 |
| 20260503022532 | 13 | 317 | 6.4 | 8.0 | 0.00 | 0.00 | 0.00 | 50 | 1008.8 |
| 20260503021550 | 13 | 309 | 4.8 | 8.0 | 0.00 | 0.00 | 0.00 | 52 | 1008.8 |
| 20260503020526 | 13 | 305 | 4.8 | 9.7 | 0.00 | 0.00 | 0.00 | 56 | 1008.7 |
| 20260503015523 | 13 | 318 | 9.7 | 11.3 | 0.00 | 0.00 | 0.00 | 53 | 1008.7 |
| 20260503014520 | 12 | 312 | 8.0 | 11.3 | 0.00 | 0.00 | 0.00 | 57 | 1008.7 |
| 20260503013518 | 13 | 325 | 8.0 | 12.9 | 0.00 | 0.00 | 0.00 | 55 | 1008.8 |